TimePDT,TemperatureF,Dew PointF,Humidity,Sea Level PressureIn,VisibilityMPH,Wind Direction,Wind SpeedMPH,Gust SpeedMPH,PrecipitationIn,Events,Conditions,WindDirDegrees,DateUTC
12:55 AM,54.0,51.1,90,29.98,10.0,West,9.2,-,N/A,,Clear,270,2011-10-25 07:55:00
1:55 AM,57.0,51.1,81,29.99,10.0,WNW,8.1,-,N/A,,Clear,290,2011-10-25 08:55:00
2:55 AM,55.0,50.0,83,30.00,10.0,NW,3.5,-,N/A,,Clear,320,2011-10-25 09:55:00
3:55 AM,53.1,48.9,86,30.00,10.0,North,-9999.0,-,N/A,,Clear,0,2011-10-25 10:55:00
4:55 AM,51.1,48.9,92,29.99,10.0,Calm,Calm,-,N/A,,Clear,0,2011-10-25 11:55:00
5:55 AM,48.9,46.0,90,30.00,10.0,ENE,3.5,-,N/A,,Clear,70,2011-10-25 12:55:00
6:55 AM,48.0,46.0,93,30.01,8.0,Calm,Calm,-,N/A,,Clear,0,2011-10-25 13:55:00
7:55 AM,48.9,46.9,93,30.01,6.0,ESE,3.5,-,N/A,,Clear,110,2011-10-25 14:55:00
8:55 AM,55.0,48.9,80,30.03,8.0,Calm,Calm,-,N/A,,Clear,0,2011-10-25 15:55:00
9:55 AM,60.1,50.0,69,30.04,10.0,NW,9.2,-,N/A,,Clear,320,2011-10-25 16:55:00
10:55 AM,63.0,46.9,56,30.04,10.0,NNW,15.0,-,N/A,,Clear,340,2011-10-25 17:55:00
11:55 AM,66.2,48.2,52,30.04,10.0,NNW,11.5,-,N/A,,Clear,330,2011-10-25 18:55:00
12:55 PM,68.0,48.9,50,30.03,10.0,NNW,11.5,-,N/A,,Partly Cloudy,330,2011-10-25 19:55:00
1:55 PM,71.1,50.0,47,30.00,10.0,NW,13.8,17.3,N/A,,Clear,310,2011-10-25 20:55:00
2:55 PM,73.0,37.0,27,29.98,10.0,NW,19.6,24.2,N/A,,Clear,320,2011-10-25 21:55:00
3:55 PM,75.0,32.0,21,29.97,10.0,NW,17.3,-,N/A,,Clear,320,2011-10-25 22:55:00
4:55 PM,73.0,41.0,31,29.97,10.0,WNW,12.7,-,N/A,,Clear,290,2011-10-25 23:55:00
5:55 PM,69.8,42.8,38,29.97,10.0,WNW,13.8,-,N/A,,Clear,300,2011-10-26 00:55:00
6:55 PM,64.9,48.0,54,29.99,10.0,NW,12.7,-,N/A,,Clear,310,2011-10-26 01:55:00
7:55 PM,63.0,51.1,65,29.99,10.0,WNW,12.7,-,N/A,,Clear,300,2011-10-26 02:55:00
8:55 PM,61.0,51.1,70,30.00,10.0,WNW,10.4,-,N/A,,Clear,290,2011-10-26 03:55:00
9:55 PM,59.0,50.0,72,30.00,10.0,West,11.5,-,N/A,,Clear,280,2011-10-26 04:55:00
10:55 PM,57.9,48.9,72,30.00,10.0,WNW,9.2,-,N/A,,Clear,290,2011-10-26 05:55:00
11:55 PM,57.0,46.9,69,30.01,10.0,WNW,9.2,-,N/A,,Clear,290,2011-10-26 06:55:00